User: anonymous   Login
Location: Unspecified
(0.0000°N, 0.0000°E)
Time: 05:39:51
(UTC+01:00)
Language:

Milstar 3 - Orbit

View from above orbital plane
View from above orbital plane
View from above satellite
View from above satellite

Ground track
Ground track

The orbit data is extracted from the following two-line orbital elements,

1 25724U 99023A   14302.44632504 0.00000040  00000-0  51148-3 0    00
2 25724  28.2146  67.2007 2127299 161.5127 198.4868  9.37442638    02
Epoch (UTC): 29 October 2014 10:42:42
Eccentricity: 0.2127299
inclination: 28.2146°
perigee height: 1102 km
apogee height: 5144 km
right ascension of ascending node: 67.2007°
argument of perigee: 161.5127°
revolutions per day: 9.37442638
mean anomaly at epoch: 198.4868°
orbit number at epoch: 0

The dashed part of the orbit path shows where the satellite is in the earth's shadow,  

DLR